Orbital Elements at Epoch 2459200.5 (2020-Dec-17.0) TDB
Reference: JPL 15 (heliocentric ecliptic J2000)
Element | Value | Uncertainty (1-sigma) | Units |
e | .1372661648802992 | 4.2914e-08 | |
a | 2.232945996215404 | 1.0235e-08 | au |
q | 1.926438062930097 | 9.674e-08 | au |
i | 3.180199262663011 | 4.8521e-06 | deg |
node | 257.3801920492591 | 8.5738e-05 | deg |
peri | 85.86858039710587 | 8.76e-05 | deg |
M | 187.5549088890187 | 1.8418e-05 | deg |
tp | 2459784.300001637529 (2022-Jul-23.80000164) | 6.3997e-05 | TDB |
period | 1218.753165053864 3.34 | 8.3798e-06 2.294e-08 | d yr |
n | .2953838482824284 | 2.031e-09 | deg/d |
Q | 2.539453929500712 | 1.164e-08 | au |
|
| | Orbit Determination Parameters
Additional Information
|